Location: Newark
(49.3808°N, 3.1844°E)
Time: 08:43:53
(UTC+00:00)

Vanguard 1 Rocket - Pass Details

Date: 18 November 2019
Orbit: 650 x 4226 km, 34.3° (Epoch: 06 December)

Event Time Altitude Azimuth Distance (km) Brightness Sun altitude
Rises 05:23:14 0° 237° (WSW) 2,988 - -15.9°
Exits shadow 05:25:06 - 225° (SW) 2,427 9.3 -15.6°
Reaches altitude 10° 05:26:02 10° 216° (SW) 2,204 9.1 -15.4°
Maximum altitude 05:29:16 17° 174° (S) 1,985 9.3 -14.9°
Drops below altitude 10° 05:33:19 10° 134° (SE) 2,879 10.9 -14.3°
Sets 05:37:48 0° 117° (ESE) 4,402 12.6 -13.6°
